AL YAH 3 (43174 NORAD) Tracking and Keplerian Element Data

This shows tracking and keplerian element data for the satellite.

Feedback or suggestion? Click here.




ElementValue
Catalog43174
NameAL YAH 3
Epoch Orbit1355
Epoch Day268.7623105
Epoch Year2021
RAAN259.1631
Inclination0.024
Eccentricity0.0002116
Argument of Perigee288.9079
Mean Anonmoly71.0664
Mean Motion1.00270133
Decay Rate-1.58E-06
L11 43174U 18012A 21268.76231050 -.00000158 00000-0 00000-0 0 9999
L22 43174 0.0240 259.1631 0002116 288.9079 71.0664 1.00270133 13552

Live tracking and technical data element details for AL YAH 3 (NORAD 43174). AL YAH 3 can be tracked NOW for your location showing map with azimuth and elevation plus other details from your city location.

Track the satellite on the map from your city or location and see movement details for azimuth, elevation, latitude, longitude, range, height, and movement on the map or in text.







IsCatalogInMostPopularTable: catalog: 43174, numindb: 797
Update: records affected: 1



GetName: 43174 AL YAH 3

Hit Count: updated at: Mon, 27 Sep 2021 01:56:14 GMT